星链-33566 (STARLINK-33566)

导读

STARLINK-33566是美国SpaceX星链星座的卫星,于2024年11月25日发射,归属星链互联网星座组网卫星。星链项目旨在构建全球卫星互联网,该卫星承担为全球偏远、欠发达区域及海洋空域提供低延迟宽带接入任务,补充完善星链低轨星座的覆盖能力与服务容量,推进星链全球通信网络部署进程。

Basic Information
目录编号:
62100
目录名称:
STARLINK-33566
国际标识:
2024-220N
轨道中心:
EARTH
卫星名称:
星链-33566
卫星全名:
星链-33566 (STARLINK-33566)
卫星状态:
在轨 (已飞行655 天)
发射日期:
2024-11-25 UTC
国别 :
美国 (US)
星等 :
--
This satellite is enrolled in the Space Conjunction Data Service (SCDS) and the current flight risk assessment level is: High Risk
Orbit Information
数据来源 国际轨道数据
星历时间: 2026-09-09T23:21:10+0800
1天前
查看轨道信息
半长轴: 6861.204km
偏心率: 0.0000852
轨道倾角: 42.999°
近地点辐角 275.287°
升交点赤经 231.982°
平近点角 84.788°
近地点: 482.482km
远地点: 483.652km
周期: 94.267分钟
每日圈数: 15.275741
Detailed Information
固有亮度:
5
最大亮度:
2.5
卫星平台:
Starlink V1.0
覆盖范围:
全球
运营商:
太空探索技术公司
运营商所在国:
美国
制造商(研发单位):
太空探索技术公司
制造商所在国:
美国
使用方式:
暂无
Satellite Introduction
Starlink 计划是 SpaceX 推出的全球卫星互联网项目,通过发射低轨道卫星,为全球尤其是偏远地区提供高速、低延迟的互联网服务。自 2019 年起,Starlink 已部署数千颗卫星,旨在缩小全球数字鸿沟,推动互联网普及。该项目还为军事、航空等行业提供通信支持,带来广泛经济效益。
2D Orbit Map
3D Orbit Map
Orbit Altitude Analysis Chart
Orbit Inclination Analysis Chart
Orbit Comprehensive Analysis Chart
View Comprehensive Chart
Conjunction Data List
Event ID Objects TCA Miss Dist (km) Collision Risk Probability Collision Risk Index (CRI) Action
CDM_260913-092705-792806-210021
2026-09-13T
09:27:42+0000
0.103 km
中距离
1.109532E-3 极高风险 0.96
CDM_260912-035905-919906-210021
2026-09-12T
03:59:05+0000
0.185 km
中距离
6.995286E-4 高风险 0.92
CDM_260913-110305-548306-210021
2026-09-13T
11:03:39+0000
0.446 km
远距离
2.106896E-4 高风险 0.81
CDM_260911-235806-210006-660521
2026-09-11T
23:58:31+0000
0.605 km
远距离
9.750567E-5 中风险 0.75
CDM_260912-202705-919906-210021
2026-09-12T
20:27:42+0000
0.653 km
远距离
6.903098E-5 中风险 0.72
CDM_260912-013206-210006-660521
2026-09-12T
01:32:40+0000
1.502 km
极远距离
4.981018E-6 低风险 0.49
CDM_260913-123705-548306-210021
2026-09-13T
12:37:48+0000
1.607 km
极远距离
4.138524E-6 低风险 0.47
CDM_260912-053305-919906-210021
2026-09-12T
05:33:14+0000
1.530 km
极远距离
4.115981E-6 低风险 0.47
CDM_260909-045505-823206-210021
2026-09-09T
04:55:31+0000
1.564 km
极远距离
3.757371E-6 低风险 0.46
CDM_260909-032105-823206-210022
2026-09-09T
03:21:22+0000
1.615 km
极远距离
3.405359E-6 低风险 0.46
Miss Distance Evolution Trend with All Objects
Collision Probability Evolution Trend with All Objects